Jackson, MS

7:12 PM CST on December 07, 2016 (GMT -0600)
Hawkins

Weather History for KHKS - May, 2013

Change the Weather History Date:

Thursday, May 9, 2013

  Actual Average (KJAN) Record (KJAN)
Temperature  
Mean Temperature 71 °F 70 °F  
Max Temperature 82 °F 81 °F 93 °F (1927)
Min Temperature 60 °F 60 °F 39 °F (1917)
Degree Days  
Heating Degree Days 0 1  
Month to date heating degree days 9  
Since 1 July heating degree days 2388  
Cooling Degree Days 6 6  
Month to date cooling degree days 47  
Year to date cooling degree days 165  
Growing Degree Days 21 (Base 50)    
Moisture  
Dew Point 61 °F    
Average Humidity 71    
Maximum Humidity 93    
Minimum Humidity 46    
Precipitation  
Precipitation 0.00 in 0.14 in 1.88 in (2014)
Month to date precipitation 1.29  
Year to date precipitation 21.02  
Sea Level Pressure  
Sea Level Pressure 30.04 in    
Wind  
Wind Speed 5 mph (South)    
Max Wind Speed 13 mph    
Max Gust Speed -    
Visibility 9 miles    
Events Thunderstorm    
T = Trace of Precipitation, MM = Missing Value Source: NWS Daily Summary

Daily Weather History Graph

Daily Weather History Graph

Search for Another Location

Airport or City:

Trip Planner

Search our weather history database for the weather conditions in past years. The results will help you decide how hot, cold, wet, or windy it might be!

Date:

Astronomy

May. 09, 2013 Rise Set
Actual Time 6:07 AM CDT 7:47 PM CDT
Civil Twilight 5:40 AM CDT 8:14 PM CDT
Nautical Twilight 5:08 AM CDT 8:46 PM CDT
Astronomical Twilight 4:34 AM CDT 9:20 PM CDT
Moon 5:50 AM CDT (5/9) 7:43 PM CDT (5/9)
Length of Visible Light 14h 34m
Length of Day
13h 40m
Waning Crescent, 0% of the Moon is Illuminated
May 9
Waning Crescent
May 9
New
May 17
First Quarter
May 24
Full
May 31
Last Quarter

Hourly Weather History & Observations

Time (CDT) Temp. Heat Index Dew Point Humidity Pressure Visibility Wind Dir Wind Speed Gust Speed Precip Events Conditions
12:53 AM 64.9 °F - 59.0 °F 81% 30.03 in 10.0 mi Calm Calm - N/A   Clear
1:53 AM 64.9 °F - 59.0 °F 81% 30.01 in 10.0 mi SSE 3.5 mph - N/A   Clear
2:53 AM 62.1 °F - 59.0 °F 90% 30.02 in 10.0 mi SE 3.5 mph - N/A   Clear
3:53 AM 63.0 °F - 59.0 °F 87% 30.02 in 10.0 mi SE 3.5 mph - N/A   Clear
4:53 AM 61.0 °F - 57.9 °F 90% 30.04 in 8.0 mi Calm Calm - N/A   Clear
5:53 AM 60.1 °F - 57.9 °F 93% 30.06 in 5.0 mi Calm Calm - N/A   Clear
6:53 AM 61.0 °F - 59.0 °F 93% 30.08 in 4.0 mi ESE 3.5 mph - N/A   Clear
7:53 AM 66.0 °F - 62.1 °F 87% 30.08 in 7.0 mi SSW 3.5 mph - N/A   Clear
8:53 AM 71.1 °F - 64.0 °F 78% 30.09 in 10.0 mi SW 6.9 mph - N/A   Clear
9:53 AM 73.9 °F - 63.0 °F 68% 30.10 in 10.0 mi SW 6.9 mph - N/A   Clear
10:53 AM 75.9 °F - 62.1 °F 62% 30.11 in 10.0 mi WSW 6.9 mph - N/A   Partly Cloudy
12:53 PM 80.1 °F 81.2 °F 62.1 °F 54% 30.09 in 10.0 mi South 6.9 mph - N/A   Clear
1:53 PM 82.9 °F 83.2 °F 60.1 °F 46% 30.07 in 10.0 mi South 12.7 mph - N/A   Partly Cloudy
3:53 PM 82.9 °F 83.3 °F 61.0 °F 47% 30.03 in 10.0 mi South 10.4 mph - N/A   Scattered Clouds
4:53 PM 82.9 °F 83.3 °F 61.0 °F 47% 30.00 in 10.0 mi SSE 11.5 mph - N/A   Partly Cloudy
5:53 PM 81.0 °F 81.7 °F 61.0 °F 50% 30.00 in 10.0 mi South 11.5 mph - N/A   Clear
6:53 PM 79.0 °F - 62.1 °F 56% 29.98 in 10.0 mi SSE 8.1 mph - N/A   Clear
7:53 PM 75.9 °F - 63.0 °F 64% 30.00 in 10.0 mi South 5.8 mph - N/A   Clear
8:53 PM 75.0 °F - 63.0 °F 66% 30.00 in 10.0 mi South 8.1 mph - N/A   Clear
9:53 PM 73.9 °F - 63.0 °F 68% 30.01 in 10.0 mi South 6.9 mph - N/A   Clear
10:53 PM 73.0 °F - 63.0 °F 71% 30.00 in 10.0 mi South 8.1 mph - N/A   Clear
11:19 PM 73.4 °F - 64.4 °F 73% 30.02 in 10.0 mi SSE 9.2 mph - N/A Thunderstorm Clear